STARLINK-3561, 52284

Orbit data source: Space-Track

STARLINK-3561, 52284 is a payload satellite owned by SpaceX/Seattle (US) in LEO that was launched on Thu, 21 Apr 2022 UTC via an FALCON 9 launch vehicle from the Air Force Eastern Test Range (AFETR). Payload-class satellites include a variety of spacecraft equipped with specific instruments for various scientific and technological missions. These include communications satellites like Starlink; space stations such as the ISS; scientific satellites like the Hubble; Earth observation satellites from companies like Planet Labs, Umbra, and HawkEye 360; GPS; miniature CubeSats for education and research; and military/defense satellites.

Loading next visibility...
Identifier
52284, 2022-041Z
Orbit
LEO
Country
Flag of USUS
Related business
Manufacturer
SpaceX/Seattle
Mission
Operational Commercial Communications
Bus & Motor
STARLINK, Unknown motor
Mass
297 kg wet, ~275 kg dry
Launch date (UTC)
2022-04-21 (4 years ago)
Launch vehicle
FALCON 9
Launch site
Air Force Eastern Test Range (AFETR)
Object type
Payload
Rocket body
Debris
Shape & HBR
Box + 1 Pan, 10.1 m
Radar Cross Section
11.087 m², Large (>1 m²)

Expand to show TLE details & history
Last TLE update: 21 hours ago

TLE from 21 hours ago
0 STARLINK-3561
1 52284U 22041Z   26175.15696018  .00000018  00000-0  19252-4 0  9999
2 52284  53.1604 341.0310 0001209  85.8364 274.2765 15.08833946230577
Epoch: 2026-06-24T03:46Z
TLE epoch observation values (Epoch: 2026-06-24T03:46:01.359Z)
Latitude
-0.00007°
Longitude
12.20707°
Altitude
540.591 km
Speed
7.593 km/s
True Right ascension
22h 44m 07s
True Declination
0° 00' 00"
Sunlit
Object was in daylight at epoch
Visualization orbit readout
Latitude
Unknown
Longitude
Unknown
Altitude
Unknown
Speed
Unknown
Apparent Right ascension
Unknown
Apparent Declination
Unknown
Sunlit
N/A
Visualization observer readout
Local Sidereal Time
12:01:48
Azimuth
Unknown
Elevation
Unknown
Doppler factor
Unknown
Orbital elements
Apogee altitude
540.852 km
Perigee altitude
539.18 km
Semi-major axis
6,918.153 km
Eccentricity
0.00012
Inclination
53.1604°
RAAN
341.031°
Arg. of periapsis
85.8364°
True anomaly
274.26268°
Mean anomaly
274.2765°
Eccentric anomaly
274.26959°
Mean motion
3.77188 °/min
Orbital period
95.44 mins
BSTAR
0.000019252
Loading maneuver chart data...
Computing Atmospheric mass density...

Documentation

Showing up to 5 results
|